Theta_e
314 319 322 324 323 323 321 319 321 324 323 324 328 329 325 323 324 325 324 314 308 313 321 318 315 316 315 314 311 311 311 309 309 310 311 313 314 315 316 316 317 317 318 318 317 317 316 315 314 314 313 312 312 312 312 313 312 313 313 312 313 313 313 313 313 312 314 317 320 325 324 323 327 327 327 327 325 324 323 322 320 320 322 320 319 321
316 321 323 323 320 318 319 318 320 321 322 325 324 322 323 323 325 323 319 315 309 313 322 319 316 317 315 314 311 309 310 309 310 310 311 314 315 316 317 316 318 318 318 318 317 317 316 316 315 314 314 313 313 312 312 313 313 313 312 312 312 312 313 313 312 313 318 320 321 324 324 321 321 324 325 323 321 320 320 319 318 318 322 321 320 321
320 322 323 317 311 313 317 317 318 319 321 327 324 320 323 323 322 321 318 316 313 314 322 321 317 317 315 314 312 309 310 311 313 313 313 315 315 315 317 317 318 318 318 318 317 318 317 316 316 315 315 314 313 312 312 312 313 313 312 312 312 312 312 312 312 315 318 319 320 322 322 322 323 323 322 322 322 321 319 317 316 318 321 321 318 317
322 325 320 311 309 316 319 316 317 318 319 324 323 321 324 322 320 322 320 317 315 314 318 320 317 316 315 315 314 311 310 311 313 314 314 314 314 315 316 316 316 317 318 318 317 317 317 316 316 316 315 315 314 313 312 312 312 313 312 312 312 312 312 312 312 315 315 315 317 319 320 323 324 322 322 323 322 320 319 316 316 319 319 318 316 315
322 321 311 308 312 319 321 317 318 320 320 321 321 321 323 322 320 321 321 319 320 318 316 319 321 322 322 321 321 316 311 311 312 313 314 315 316 316 315 315 316 317 317 318 317 317 316 316 316 317 316 315 315 313 313 312 312 313 312 312 312 311 311 312 312 312 313 315 317 318 319 319 320 321 323 322 320 320 319 316 317 319 316 317 319 317
321 313 310 314 315 317 321 321 322 322 322 323 323 321 320 321 320 319 320 321 324 326 319 316 323 332 332 329 327 324 321 320 316 311 313 317 318 316 316 317 318 318 318 318 318 317 317 317 316 316 315 315 315 314 314 312 312 311 312 311 311 311 311 312 312 311 311 315 320 321 320 320 321 323 321 319 321 320 316 316 318 317 315 317 321 319
318 312 314 322 318 317 319 319 322 321 320 324 323 320 317 316 318 318 319 320 326 329 317 313 321 329 328 325 323 324 325 323 317 312 313 316 318 316 317 319 319 319 319 318 318 318 318 317 317 316 315 315 315 314 313 312 311 310 311 311 310 311 311 311 312 312 312 314 319 323 323 322 322 321 318 318 320 317 314 317 317 316 316 317 319 319
317 315 315 321 321 319 318 320 322 317 322 327 320 318 318 316 318 320 319 320 324 325 318 316 322 324 323 322 321 321 321 321 320 319 316 313 315 317 317 319 319 319 319 318 318 318 318 317 317 317 316 315 314 313 312 311 311 310 309 310 310 310 311 311 311 311 312 314 316 319 320 320 320 318 316 317 317 315 315 317 316 316 317 316 317 318
314 320 318 319 322 320 320 324 321 316 322 324 314 315 318 317 321 322 322 323 321 321 322 321 320 322 327 327 324 321 321 324 325 324 320 314 314 317 317 318 318 318 318 318 319 318 318 318 317 316 315 314 313 312 312 311 311 309 309 309 310 310 311 311 311 310 312 314 314 314 316 318 319 318 317 317 317 315 316 316 315 316 317 316 316 317
312 316 315 316 321 321 322 320 315 316 321 315 310 315 318 319 322 324 326 327 323 322 324 323 321 322 326 327 326 322 323 327 324 322 318 313 315 318 318 319 318 319 319 319 319 318 318 318 316 315 314 313 312 311 311 311 310 309 308 309 310 310 310 310 311 311 311 313 313 313 316 318 319 318 318 319 318 315 315 316 315 314 315 316 316 316
311 310 311 314 317 316 318 313 309 314 315 310 316 324 323 324 324 325 326 324 324 326 323 321 323 322 323 327 328 323 324 328 324 323 323 318 317 319 319 319 319 319 319 318 318 318 318 317 316 315 314 313 312 311 310 310 310 309 308 309 309 309 310 309 311 312 311 312 313 313 315 318 318 319 319 319 317 315 315 315 314 314 314 314 316 317
313 313 313 313 312 311 315 315 310 309 309 314 328 329 324 326 324 324 326 323 326 328 321 318 319 319 322 328 328 323 322 324 321 324 330 324 319 319 319 319 319 318 318 318 318 317 317 317 317 316 315 314 312 311 311 310 310 309 308 309 309 309 310 309 310 312 311 313 316 315 315 317 317 317 316 316 315 315 315 314 313 313 312 313 316 315
316 320 316 312 311 312 319 321 315 312 313 319 328 326 324 327 324 324 326 323 325 323 315 314 317 317 320 322 322 321 320 321 316 315 320 317 315 319 319 318 318 318 318 318 318 318 317 317 317 316 315 314 313 312 311 310 310 309 308 308 309 310 310 309 311 312 311 313 317 318 317 317 315 314 314 313 314 315 315 314 312 310 311 313 314 311
319 320 316 314 314 313 318 321 319 319 317 319 323 324 325 326 326 331 327 320 322 320 313 312 317 320 321 320 320 320 317 317 315 312 314 314 314 317 318 318 319 319 319 319 318 318 318 317 317 316 315 314 314 313 312 311 310 309 308 308 308 310 310 310 311 312 311 313 315 315 316 315 313 313 313 313 314 315 313 313 312 310 310 313 311 306
319 319 317 317 316 315 316 317 321 323 317 318 321 322 324 327 329 333 330 326 326 324 317 313 317 325 327 324 320 315 312 312 313 314 314 314 315 315 316 318 319 319 319 318 318 317 317 317 316 316 315 315 314 313 312 311 310 309 309 308 308 309 310 310 311 312 312 312 313 314 315 313 312 313 313 312 313 313 311 311 311 310 311 311 307 303
316 319 320 315 313 315 316 314 318 321 317 318 320 320 323 324 324 322 320 322 323 323 323 318 320 325 324 321 317 312 313 313 312 312 313 314 315 314 315 318 319 319 319 318 318 317 317 316 316 316 315 315 314 313 312 311 311 310 309 309 309 309 309 310 311 311 312 312 312 313 312 311 311 313 314 313 312 312 311 310 311 311 311 307 303 301
317 320 318 313 312 313 313 313 314 316 317 318 318 321 319 316 322 324 316 313 314 319 324 321 322 325 322 320 319 317 320 319 314 312 311 313 314 313 315 319 319 319 319 318 318 317 317 317 316 316 315 314 314 313 313 312 311 311 310 309 309 309 309 310 311 311 311 311 310 310 309 310 312 314 314 313 312 311 310 310 311 312 309 304 301 299
320 322 316 313 316 312 308 312 312 310 315 321 321 320 316 313 321 326 322 321 320 321 325 322 321 325 323 322 321 319 320 320 318 316 312 311 312 313 316 319 319 319 319 319 319 318 317 317 316 316 315 315 314 313 312 312 311 310 310 309 309 309 309 309 310 311 311 310 310 309 310 310 312 313 313 312 311 310 310 311 312 312 306 302 300 298
318 319 318 312 316 313 310 314 316 311 311 317 319 317 318 322 324 321 322 328 327 324 328 325 319 320 321 322 322 321 325 329 326 324 323 315 311 313 318 319 319 319 319 319 319 318 317 317 316 316 315 315 314 313 312 311 310 310 309 309 308 308 309 309 310 310 310 310 310 310 310 310 311 312 312 310 309 309 310 311 313 311 304 300 298 297
316 317 319 313 311 313 314 316 319 317 312 312 314 314 317 322 323 322 321 323 325 325 327 327 323 321 320 322 324 320 325 334 332 332 332 320 313 316 319 319 319 319 319 319 318 318 317 317 317 315 315 314 313 313 312 311 310 309 309 308 308 308 309 309 309 310 310 309 310 311 311 311 311 311 310 308 309 310 311 311 312 309 303 299 298 297
316 315 318 314 311 314 318 317 317 318 315 315 317 317 317 318 319 321 320 319 324 327 327 327 323 323 324 322 323 320 322 327 330 332 329 319 316 319 319 318 320 319 319 319 318 318 318 317 317 316 314 314 313 312 311 311 310 310 309 308 308 308 308 309 309 309 309 308 309 311 311 311 311 309 307 307 309 310 310 310 310 307 301 299 297 296
317 317 319 318 315 316 319 316 313 315 316 317 318 318 318 317 318 320 319 318 320 322 325 326 321 322 327 321 319 322 323 320 319 321 319 317 317 320 319 318 320 319 319 319 318 318 318 318 317 316 315 314 313 312 311 311 310 309 309 308 308 308 308 309 309 309 308 307 308 310 311 311 311 310 308 309 310 311 310 309 308 305 300 298 297 296
317 320 322 321 319 318 316 311 307 310 316 316 316 318 318 317 318 320 321 320 319 319 320 321 321 321 323 319 317 319 317 312 310 311 313 316 318 319 318 319 319 319 319 319 318 318 318 318 317 316 316 315 314 313 312 311 310 310 309 308 307 307 308 308 309 309 309 307 308 309 310 311 311 311 311 311 311 311 309 306 305 303 299 297 296 296
315 320 320 320 322 321 318 314 308 308 314 316 316 317 318 316 317 319 321 320 321 322 320 320 321 320 318 318 312 308 306 307 309 310 312 316 318 318 318 319 319 319 320 319 319 319 318 318 318 317 316 316 315 314 313 311 311 310 309 308 308 307 307 308 308 309 309 308 308 308 309 310 311 311 311 311 311 310 307 304 303 301 298 296 296 295
316 320 320 320 323 322 320 319 316 312 313 317 319 318 317 317 317 317 319 319 320 324 323 321 322 319 319 320 312 308 311 311 309 310 311 314 317 318 318 319 318 319 319 319 319 319 319 318 318 317 316 316 315 314 313 312 311 310 309 309 308 308 307 307 308 308 309 308 308 307 308 310 311 311 311 311 311 310 306 302 301 300 297 296 295 295
317 320 319 318 319 319 319 320 320 318 314 315 320 319 316 317 318 317 318 319 320 322 321 320 320 318 319 320 317 315 318 317 313 312 311 312 315 318 318 317 318 319 318 319 319 318 318 318 318 318 317 316 315 314 313 313 312 311 310 309 308 308 307 307 307 308 308 308 308 307 307 309 311 311 311 311 311 309 305 302 300 299 297 295 295 294
321 320 317 317 318 317 317 318 321 321 318 316 318 318 315 316 316 317 318 319 320 321 320 319 318 319 320 321 322 321 321 324 322 314 311 314 315 316 317 317 318 319 317 318 318 318 318 318 318 318 318 317 316 314 314 313 312 312 310 309 309 308 307 307 306 307 307 308 308 307 307 308 310 310 310 311 310 307 304 302 300 298 297 295 294 294
323 320 317 318 318 317 317 318 320 321 319 318 317 316 316 315 315 317 318 319 319 320 320 319 318 319 319 320 326 327 326 329 324 312 311 316 317 316 317 318 318 319 317 317 318 318 318 318 318 318 318 317 316 315 314 314 313 312 311 310 309 308 307 307 306 306 306 307 308 307 306 307 309 309 310 311 310 307 303 301 300 298 296 295 294 293
321 320 318 318 318 317 316 317 319 321 319 318 318 317 316 315 315 316 317 317 318 319 319 319 321 321 318 317 321 323 321 321 319 315 315 316 316 316 317 318 318 318 317 318 318 318 318 318 318 318 318 317 316 315 315 315 314 313 312 310 309 308 307 306 306 305 305 306 307 307 307 307 309 309 310 310 310 307 303 301 300 298 296 294 293 293
318 319 319 319 318 318 317 317 319 320 318 317 317 316 316 315 315 316 316 316 317 318 318 318 321 321 318 319 320 318 316 315 315 316 316 315 316 317 317 317 318 317 317 317 317 318 318 318 318 318 317 317 317 316 316 316 315 314 312 311 310 309 307 306 305 305 305 305 306 307 307 308 308 309 309 310 310 307 303 301 299 298 296 294 293 293
314 319 321 319 318 319 318 317 318 318 317 318 317 316 316 315 315 315 316 316 316 317 317 317 319 318 316 318 319 315 314 315 315 315 315 316 317 317 317 317 317 317 317 317 317 317 318 318 318 317 317 317 317 317 316 316 315 313 312 311 310 309 308 306 305 305 304 304 305 307 307 308 308 308 308 309 309 308 305 301 299 298 296 294 293 292
315 319 321 319 318 319 318 318 318 316 315 316 317 317 316 316 316 315 315 316 316 317 317 317 318 318 316 318 317 314 313 313 312 312 314 315 317 316 315 315 315 316 316 316 317 317 317 317 317 317 317 317 317 317 316 316 315 313 312 311 310 309 308 306 305 305 304 304 304 305 307 307 308 308 308 308 308 308 306 303 301 299 296 294 293 292
317 317 318 318 318 319 318 319 319 316 316 317 317 317 316 315 315 315 315 315 315 316 318 318 317 317 317 319 319 318 318 316 312 313 314 314 315 315 314 314 314 315 316 316 316 316 316 316 316 316 316 316 316 316 316 315 314 313 312 310 309 308 307 306 305 304 304 303 303 304 305 307 307 308 308 308 308 308 307 305 302 300 298 296 294 292
317 316 315 316 318 319 318 319 319 318 319 319 317 316 316 315 315 316 316 315 315 315 316 317 317 316 317 319 318 318 319 318 314 314 315 314 314 314 314 314 314 315 315 315 315 315 315 315 315 315 315 315 315 315 315 315 313 312 310 309 308 308 307 306 305 304 303 303 303 303 304 305 307 307 308 308 308 308 307 305 303 301 299 297 294 293
316 315 314 315 317 318 318 317 319 320 319 320 321 320 317 315 315 315 315 315 314 314 315 315 316 316 316 316 315 314 314 314 314 315 315 314 313 313 314 314 315 314 314 314 314 314 314 314 314 314 314 314 314 314 314 314 313 311 310 309 308 307 306 305 304 303 303 302 302 302 303 304 305 306 307 308 308 308 307 305 303 302 300 298 296 293
317 315 315 316 316 318 318 318 320 321 319 320 324 323 318 316 316 315 315 315 314 314 314 314 314 315 314 313 313 313 312 312 313 313 312 313 314 314 314 314 314 314 314 314 314 314 314 313 313 312 312 312 313 313 313 312 311 311 310 309 308 306 305 304 303 302 302 301 301 301 302 302 304 305 306 307 307 307 305 303 302 301 300 298 296 293
317 316 315 316 316 317 319 319 319 320 320 321 322 320 317 317 316 316 316 316 315 313 313 314 314 314 314 312 312 313 312 312 312 312 312 313 315 314 314 314 314 314 313 313 313 313 313 313 312 312 311 311 311 312 311 311 310 310 309 307 306 305 304 303 302 301 300 300 300 301 301 302 302 303 305 305 306 305 303 301 300 300 299 298 295 293
316 316 316 317 317 316 318 320 320 320 321 320 319 319 316 314 314 316 317 318 317 315 312 313 314 314 313 313 312 311 312 313 315 313 312 314 314 314 313 313 313 313 313 313 313 312 312 312 312 312 311 311 310 310 310 310 309 308 306 305 304 303 302 301 301 300 299 299 299 300 300 301 302 303 304 304 304 303 301 299 299 298 297 296 295 293
315 315 315 317 316 316 318 319 320 321 321 319 321 322 317 312 313 316 318 319 319 315 311 312 314 314 313 311 311 312 313 316 316 314 312 313 313 313 313 312 312 312 312 312 312 312 312 311 311 310 310 309 309 309 308 307 306 305 304 303 302 301 301 300 299 299 299 298 299 299 300 301 301 302 302 302 302 300 299 299 298 297 296 294 293 292
314 315 315 315 317 317 317 318 319 320 319 321 324 320 313 310 313 318 320 321 318 314 312 311 312 313 312 311 311 313 315 316 315 313 311 311 312 311 311 311 311 311 311 311 311 311 310 309 308 308 307 307 306 306 306 305 304 303 302 301 300 300 299 299 298 298 298 298 298 298 299 300 300 300 300 300 299 298 297 296 296 295 295 295 295 295
314 315 315 315 316 316 317 318 319 318 320 322 318 310 308 312 316 320 322 320 314 312 313 312 312 314 313 311 311 313 314 313 312 311 310 310 311 311 311 312 311 311 310 310 309 309 308 307 307 306 306 305 305 304 304 303 302 301 300 299 299 298 298 298 297 297 297 297 297 298 298 298 298 297 297 296 296 296 296 296 296 296 297 297 298 298
315 315 315 315 316 315 316 318 317 318 321 319 311 305 308 316 320 319 317 314 312 313 313 313 314 315 314 311 311 312 312 311 310 310 309 310 310 311 311 311 310 310 309 308 308 307 307 306 306 305 305 304 304 303 303 302 301 300 300 299 298 298 298 298 297 297 297 297 297 297 297 296 296 296 296 297 297 298 298 298 298 299 299 298 298 297
315 315 316 315 315 316 316 316 317 319 318 312 309 309 311 316 319 316 312 310 311 313 314 314 314 315 314 312 312 312 310 309 310 310 309 310 310 310 310 309 309 308 308 307 307 307 306 306 305 305 305 304 304 303 303 303 302 302 301 301 300 300 300 299 299 299 299 299 299 299 299 299 299 299 299 299 300 300 299 299 299 299 299 298 297 296
315 316 317 316 315 316 316 317 318 319 315 311 313 315 313 312 313 313 312 311 310 311 313 314 314 314 314 313 312 312 310 310 310 310 309 309 309 308 308 308 308 308 307 307 307 306 306 306 306 305 305 305 304 304 304 304 304 304 303 303 302 302 302 301 301 301 301 301 300 300 300 300 300 299 299 299 299 299 299 299 299 298 298 296 295 294
316 315 316 316 316 316 317 316 315 312 309 309 311 312 312 311 311 311 312 312 311 311 313 313 314 314 313 312 311 311 311 311 310 309 309 308 308 307 307 307 307 307 306 307 306 306 305 306 306 305 305 305 304 303 303 303 303 303 303 302 302 302 301 301 300 300 300 299 299 299 299 299 298 298 298 298 298 298 298 297 297 296 295 294 293 292
311 308 311 316 317 316 314 311 309 307 305 306 307 308 309 310 309 309 309 310 311 312 311 311 312 313 312 311 311 310 310 310 309 309 308 307 307 307 306 306 306 306 306 306 306 306 305 305 305 305 305 304 303 302 301 301 301 301 301 300 300 300 300 299 299 299 298 298 298 298 298 298 298 297 297 297 296 296 295 295 294 294 293 293 292 292
308 305 308 314 317 317 316 312 309 307 305 305 305 305 306 307 308 308 308 309 309 310 309 309 310 310 310 310 310 309 310 309 308 308 307 306 306 306 305 305 305 305 305 305 305 305 304 304 304 304 304 303 302 301 300 299 299 299 299 299 299 299 298 298 298 298 298 298 297 297 297 296 296 296 296 295 295 294 294 293 293 292 292 292 292 291
309 307 309 313 313 314 313 309 304 302 303 304 304 304 304 305 306 306 307 308 308 308 307 307 307 307 307 308 308 308 308 307 306 307 306 305 305 305 305 305 305 305 305 305 304 304 303 304 303 303 302 302 301 299 299 299 298 298 298 298 298 298 297 297 297 297 296 296 296 295 295 294 294 293 293 293 292 291 291 291 291 290 290 290 290 290
308 308 309 311 312 312 311 307 302 303 306 305 304 303 303 303 305 306 307 307 307 307 307 306 306 306 306 306 306 306 306 306 306 306 306 305 305 305 304 304 304 304 304 303 303 302 302 302 302 301 301 300 299 298 298 298 298 297 297 297 296 296 296 295 295 295 294 294 294 293 293 292 292 291 291 291 290 290 290 290 290 290 290 290 290 290
307 310 310 310 311 313 313 310 307 309 312 309 306 305 304 304 305 306 306 306 306 307 306 305 305 304 304 305 305 305 305 305 305 305 305 305 305 304 304 303 303 303 303 302 302 301 300 300 300 300 299 299 298 297 297 297 296 296 295 294 294 293 293 293 293 292 292 292 292 291 291 291 290 290 290 290 290 290 290 290 290 290 290 290 290 289
308 311 310 311 312 313 312 309 307 309 311 310 309 308 307 305 306 306 306 306 307 306 305 305 304 304 303 303 304 304 304 305 305 304 304 304 304 304 303 303 303 302 301 300 300 299 298 298 298 298 298 297 297 296 296 295 294 293 293 292 292 291 291 291 291 291 291 291 291 290 290 290 290 290 290 290 290 290 290 290 290 290 290 290 290 290
Wind_Speed
3 2 2 5 7 7 8 6 5 5 6 6 5 3 4 4 5 5 3 5 1 2 6 7 7 11 12 10 15 21 16 14 22 25 29 32 32 33 34 35 36 35 35 32 30 30 29 29 30 30 30 30 32 33 32 31 30 30 29 28 26 25 24 23 22 22 22 23 23 25 25 24 26 27 26 25 24 24 25 26 23 17 20 19 15 16
4 3 7 9 8 7 5 5 6 5 5 5 4 1 2 3 5 6 2 4 1 3 5 4 5 11 12 11 15 18 11 14 24 25 28 33 34 36 37 38 39 37 37 35 34 33 32 32 31 31 31 31 33 34 35 33 32 32 30 29 28 26 25 24 23 22 22 24 25 27 27 26 26 28 29 27 26 26 25 25 23 16 19 20 17 18
3 4 11 8 7 6 4 6 7 5 5 4 3 1 3 3 4 6 3 5 2 3 4 5 4 10 12 11 15 18 16 21 29 29 31 34 34 37 39 39 40 39 38 38 37 36 35 34 33 33 33 33 33 34 36 36 34 33 31 30 29 27 26 25 23 23 25 27 28 27 26 24 25 26 27 26 24 25 24 23 22 20 23 23 18 18
2 6 9 7 11 8 5 4 7 5 3 2 3 3 3 3 1 4 4 4 2 1 2 4 5 8 11 10 13 20 22 23 30 32 34 37 38 40 40 39 39 39 40 39 38 37 36 36 35 36 35 34 35 35 37 38 36 35 33 32 31 29 27 25 24 25 27 28 28 26 25 26 27 26 26 25 24 25 24 20 19 21 23 21 16 15
5 6 1 6 8 8 6 4 7 5 2 3 4 6 4 4 5 5 4 4 3 3 3 3 6 7 7 8 9 11 10 14 23 26 31 38 39 41 41 39 39 41 41 40 39 38 36 36 35 36 37 37 37 37 38 39 39 37 35 33 31 30 28 26 25 26 27 27 28 28 27 27 29 29 28 27 26 26 23 19 19 20 19 20 18 16
7 4 4 6 3 5 7 4 6 7 3 4 5 9 9 8 6 3 3 5 4 4 3 3 4 6 5 6 9 6 5 9 14 14 24 33 33 33 34 35 36 37 38 37 37 36 35 35 34 34 36 37 39 38 37 38 40 38 36 34 32 30 28 27 26 26 27 27 28 29 29 29 32 32 29 27 26 24 21 20 21 19 18 20 21 18
4 1 4 6 5 6 6 3 6 7 5 2 5 8 10 6 4 3 1 2 1 4 3 3 1 6 7 7 10 7 7 11 12 11 21 31 31 30 32 34 34 33 33 33 32 32 32 32 32 33 34 35 37 38 38 39 40 39 37 34 32 30 29 28 27 27 26 27 29 30 30 30 31 30 28 26 26 23 20 21 21 20 21 22 22 21
4 3 4 6 6 5 6 4 6 8 7 3 4 5 7 6 6 5 5 3 3 3 3 2 4 3 7 8 7 5 7 10 12 13 18 25 30 31 32 32 31 30 29 29 28 27 27 28 29 30 31 32 34 36 38 39 40 40 37 34 32 31 30 29 27 27 27 27 29 32 32 31 30 28 26 26 25 22 21 23 21 21 23 23 23 23
3 6 6 6 5 4 6 5 7 11 5 4 2 6 6 6 5 4 5 3 1 3 4 1 4 2 7 7 5 3 4 8 13 14 14 20 25 25 23 21 19 19 18 18 17 17 17 19 21 24 27 29 32 35 36 38 39 38 37 34 33 31 30 29 28 27 27 28 29 30 31 31 30 28 26 26 24 21 23 25 23 23 24 24 25 24
1 3 7 7 5 5 4 2 6 9 4 4 6 7 6 6 5 5 4 3 4 3 7 6 6 3 6 5 3 2 2 7 12 11 10 17 21 17 13 10 8 9 9 8 9 10 12 14 15 18 22 26 29 31 34 36 37 37 36 35 34 32 30 29 29 27 27 28 28 28 29 30 30 29 27 27 25 23 26 27 24 25 26 25 25 25
1 2 2 4 4 5 5 3 1 3 6 9 7 6 7 6 5 4 2 4 3 5 8 6 10 6 4 5 4 3 4 7 9 8 8 13 14 10 6 5 5 6 7 8 10 12 15 16 16 17 20 23 26 29 32 35 36 36 36 36 34 32 30 30 29 27 27 27 27 28 29 29 30 29 29 29 28 26 29 29 26 27 27 27 26 25
3 1 1 3 4 6 8 5 4 4 6 7 4 5 4 3 4 4 4 4 1 6 5 1 6 6 5 6 5 6 7 7 7 7 7 10 12 9 5 5 7 9 11 13 16 18 19 19 18 18 19 21 24 28 31 33 35 35 35 35 34 33 32 31 29 28 27 27 28 28 29 30 31 31 32 32 30 29 30 30 28 28 29 29 28 26
2 4 3 1 4 7 7 5 5 4 2 4 4 6 4 2 3 3 3 1 3 7 3 1 1 3 7 9 8 11 14 11 10 12 13 15 18 18 15 14 17 18 19 21 23 23 22 20 18 18 18 20 22 25 29 31 34 35 35 36 36 34 33 32 31 29 28 28 30 32 31 31 31 30 30 28 28 29 29 29 28 29 31 31 29 29
3 6 2 1 3 8 9 6 3 1 3 5 5 6 4 2 1 3 3 1 4 6 3 2 2 2 5 7 10 16 18 17 17 21 23 23 24 26 27 27 26 26 26 26 25 22 20 17 16 16 17 18 20 23 27 30 32 34 36 36 36 36 34 32 31 30 30 30 33 34 34 33 31 29 27 26 28 29 29 28 27 28 32 32 30 33
5 6 5 6 4 11 12 8 6 6 5 5 3 5 5 5 5 4 3 3 4 4 3 3 2 3 4 4 7 12 16 18 20 24 25 27 29 29 29 28 26 26 25 24 22 19 17 16 15 15 16 17 19 21 25 29 31 34 36 37 37 36 35 33 32 31 32 32 33 34 35 34 31 30 28 27 29 30 29 29 27 28 32 32 32 35
5 7 6 3 3 13 12 6 7 7 3 2 2 4 3 5 5 1 3 5 3 2 4 2 4 5 5 6 9 10 13 15 17 17 18 24 26 23 23 24 22 22 22 21 20 18 16 15 14 15 15 16 18 20 23 27 30 33 35 36 37 36 35 33 33 32 32 33 33 34 35 34 32 31 30 29 30 31 31 29 28 30 32 32 35 36
3 5 5 3 1 6 5 4 5 4 3 2 3 4 4 4 6 3 2 1 4 1 4 2 5 5 3 7 11 9 11 12 12 11 14 21 20 16 21 23 20 19 19 19 17 13 12 12 13 14 15 17 18 19 22 25 28 31 34 36 37 36 35 34 34 33 33 33 32 32 33 32 32 33 32 32 32 32 31 28 27 30 33 34 37 37
5 3 4 1 1 3 1 4 4 3 4 5 4 6 2 2 3 4 1 2 3 2 5 2 5 5 2 5 5 2 7 12 12 10 15 20 16 17 23 21 16 15 15 14 12 9 9 10 11 13 14 16 17 18 20 23 27 30 33 36 37 37 36 35 35 34 34 33 31 31 32 32 33 34 33 34 33 31 29 28 29 32 35 38 39 37
5 3 5 2 2 3 3 4 2 3 3 4 5 5 4 2 1 2 2 2 1 3 5 4 5 4 5 6 3 2 8 11 11 10 10 12 13 18 20 13 10 11 11 11 9 8 8 9 10 12 13 15 16 17 19 22 26 30 33 35 37 37 36 35 35 35 36 35 32 31 32 33 33 34 35 36 32 29 29 30 31 34 37 40 40 38
3 3 4 2 1 1 3 2 5 2 2 3 2 3 2 2 4 3 3 3 3 3 3 4 5 4 6 7 7 10 11 9 9 9 7 9 13 15 13 6 6 10 10 10 9 8 8 9 10 11 12 14 14 16 18 21 25 29 32 35 37 38 37 36 36 36 37 36 33 32 32 33 34 35 37 36 31 29 30 31 33 36 40 41 40 39
3 4 4 3 3 0 2 4 8 9 6 3 4 5 3 1 2 1 1 2 4 3 2 2 6 7 6 5 9 12 11 10 11 9 7 11 13 11 9 3 6 11 11 11 11 9 9 9 10 10 11 13 14 16 18 20 24 27 31 35 37 38 39 38 38 37 37 36 34 34 33 33 34 34 33 32 31 31 31 32 34 38 41 42 40 39
3 4 4 1 0 3 4 3 4 7 8 7 7 8 9 6 4 3 3 2 2 2 4 3 6 10 5 5 8 10 8 10 11 9 7 11 12 11 8 3 5 10 13 14 13 12 11 10 10 10 11 13 15 17 18 20 23 27 31 34 37 39 40 39 38 37 37 36 35 35 35 34 34 33 30 30 31 32 33 34 36 39 42 42 40 39
4 3 4 3 4 6 4 2 1 4 3 2 3 5 6 6 6 6 5 4 2 1 2 3 3 9 4 4 7 7 6 7 8 11 11 12 13 11 8 3 4 9 13 16 16 14 12 12 13 12 12 13 14 16 18 20 23 25 29 33 36 39 40 40 39 38 37 36 35 35 35 35 35 34 32 31 32 33 34 35 37 41 43 42 41 40
4 3 3 2 3 3 4 4 2 1 2 2 5 4 4 6 6 4 3 4 4 4 3 3 4 8 4 2 4 6 7 7 8 14 16 17 16 11 6 3 3 8 12 15 17 16 15 15 16 16 15 14 14 16 17 19 22 24 27 31 35 38 40 40 39 39 38 36 36 36 36 36 36 36 34 33 33 34 35 36 39 43 44 43 42 41
7 4 4 3 2 3 4 3 2 1 2 4 4 4 5 8 6 3 1 2 1 7 8 5 8 9 4 3 3 3 5 7 9 13 14 17 17 10 7 6 6 12 15 17 19 19 18 18 19 19 18 17 16 16 17 19 21 23 26 30 34 36 38 39 40 40 39 37 36 37 37 37 37 37 35 33 33 34 36 38 40 44 44 43 43 41
10 5 7 8 7 7 6 6 5 4 3 2 3 7 9 10 11 7 2 2 5 9 8 7 10 8 3 4 4 2 2 5 9 10 11 15 17 13 11 8 13 19 21 20 22 22 21 21 21 21 22 21 18 17 17 18 20 22 25 28 32 35 37 39 39 40 40 38 37 37 38 39 38 37 35 33 32 34 37 39 41 44 45 44 43 42
5 4 11 12 12 13 12 10 5 6 7 6 10 12 11 11 13 9 4 5 8 5 5 11 15 12 7 4 5 6 5 6 8 8 9 14 18 17 14 12 19 25 25 23 23 25 25 25 24 24 24 24 22 19 18 18 19 21 24 27 30 34 37 38 39 40 41 40 39 38 38 39 39 37 35 33 32 35 38 40 42 44 45 44 43 42
2 3 12 15 16 17 16 14 8 9 11 14 15 15 13 12 13 12 11 14 10 4 9 17 13 14 16 9 8 9 7 6 7 9 14 17 19 19 15 16 22 29 29 27 26 27 28 28 27 26 26 26 25 22 20 20 21 22 24 26 29 33 35 38 39 40 41 41 41 39 39 39 39 37 35 32 32 35 39 41 43 45 45 44 43 42
2 5 10 12 16 17 18 13 9 10 11 13 16 18 17 16 16 16 19 23 15 9 17 17 11 15 22 13 11 11 8 9 12 16 19 18 18 19 19 22 27 30 32 33 31 31 31 30 30 29 28 27 26 25 23 23 24 24 25 26 28 32 35 37 39 40 40 42 42 41 39 39 38 37 35 33 33 35 39 42 43 45 45 44 42 41
3 5 8 10 13 15 18 14 10 11 10 9 13 17 18 18 20 22 24 27 22 16 21 19 11 17 19 9 10 14 16 18 18 19 20 19 21 25 27 31 32 32 34 35 34 34 33 31 31 31 29 28 28 28 26 26 28 27 26 26 28 31 34 37 39 39 40 42 42 42 40 39 38 37 37 36 35 36 38 40 42 44 45 43 42 41
5 6 5 7 8 10 17 18 12 11 10 9 10 11 14 18 22 25 25 22 17 16 22 21 16 19 12 7 10 16 19 19 16 18 24 27 29 32 32 34 35 34 35 35 35 34 33 32 33 32 31 30 29 29 28 29 30 28 27 26 27 30 33 37 39 39 40 41 41 42 41 40 39 38 38 38 36 36 37 38 41 43 44 43 42 42
3 4 0 2 5 9 16 18 11 6 5 8 8 10 16 19 20 21 18 15 15 18 21 18 16 18 8 8 10 13 14 13 14 19 26 30 33 33 32 33 34 34 35 34 34 34 33 34 33 32 31 30 29 29 29 29 30 28 27 26 26 29 32 35 38 39 40 40 40 42 42 41 40 40 40 39 37 36 36 37 39 42 43 43 43 43
4 4 3 3 6 11 14 10 4 5 1 7 12 17 22 22 18 13 11 15 19 18 16 14 16 19 10 6 7 9 8 10 16 23 28 30 31 30 29 29 30 32 34 34 33 33 33 32 31 30 30 30 29 29 28 30 30 27 26 25 25 27 29 32 36 38 39 39 40 42 43 42 42 41 40 39 38 36 36 36 38 40 42 44 44 44
5 6 7 5 5 10 9 2 6 4 7 12 14 17 20 19 16 14 16 21 20 15 14 14 16 19 12 7 9 9 10 16 24 30 31 29 25 25 26 29 31 32 33 32 32 32 31 31 30 29 28 28 28 28 29 30 30 26 24 24 24 25 27 30 33 36 38 39 39 41 42 42 43 42 41 39 38 36 36 36 37 39 41 44 45 44
7 8 7 5 4 6 2 4 4 7 10 11 9 7 10 14 17 20 22 21 18 16 17 17 20 21 16 12 14 15 18 24 29 32 30 25 23 24 29 33 34 32 32 32 32 33 33 32 31 29 28 27 27 29 30 30 27 24 23 23 23 24 26 28 30 33 36 38 39 40 41 42 42 42 40 39 38 37 36 35 36 37 40 43 45 45
8 8 6 5 4 3 2 5 9 7 3 5 7 3 5 10 14 16 18 17 16 15 16 19 25 25 20 18 21 24 22 22 25 28 26 24 27 32 33 34 33 31 31 30 30 30 30 29 29 27 25 25 26 28 29 26 24 22 21 21 22 23 25 26 28 30 33 36 38 39 40 40 41 40 39 38 38 36 35 34 34 35 38 41 44 43
10 8 5 5 5 5 6 8 8 7 6 8 11 7 6 9 12 12 12 15 15 15 17 20 24 24 19 20 27 27 19 15 18 20 21 26 33 33 29 28 26 24 24 22 21 22 23 23 23 22 21 22 23 24 24 22 20 19 18 19 20 21 22 24 25 27 30 33 35 36 37 37 37 37 36 36 35 34 33 32 32 32 35 38 40 41
11 9 7 7 5 5 7 8 6 6 8 14 15 7 7 11 13 12 10 13 12 17 23 22 20 20 16 18 26 22 10 8 12 12 13 21 26 21 18 18 16 15 15 15 15 17 18 19 19 18 18 18 19 20 20 18 16 15 14 15 16 17 19 20 21 23 25 27 29 30 31 32 33 32 32 32 31 30 29 28 28 28 30 34 37 38
12 9 8 8 6 5 7 8 7 7 9 14 13 4 10 18 16 11 7 12 13 16 24 21 16 16 16 20 23 12 3 5 12 11 11 14 15 13 12 12 11 11 13 14 15 16 16 16 15 14 13 14 14 14 13 12 10 9 9 9 11 12 14 14 15 17 19 21 23 24 25 26 26 27 27 26 26 25 25 24 24 24 26 29 31 33
12 8 7 8 8 9 9 8 7 6 8 10 7 3 11 22 21 11 7 14 9 11 21 21 17 20 27 28 20 7 6 11 13 11 10 10 10 11 10 10 12 13 13 14 14 14 13 12 10 8 7 7 7 7 6 5 4 4 3 3 4 5 6 7 9 10 12 14 16 17 18 19 20 21 21 20 20 20 20 20 20 20 22 24 26 29
10 8 7 8 10 11 12 10 6 4 7 7 5 8 16 21 16 9 11 9 6 12 22 27 28 31 36 28 16 12 17 23 19 12 10 9 9 11 11 13 13 12 11 10 10 9 8 6 5 4 3 4 5 5 5 6 6 6 6 6 5 4 4 3 3 4 6 7 9 10 11 12 13 13 14 14 15 15 16 17 18 19 21 22 23 25
9 6 6 9 10 10 10 9 6 6 8 6 8 13 18 14 7 10 7 6 11 16 21 28 32 34 33 26 22 23 25 24 20 16 13 12 12 12 11 11 11 9 8 6 5 3 3 4 5 6 8 10 11 12 13 13 14 14 14 13 12 12 11 10 9 9 8 8 8 8 9 9 10 10 11 12 13 14 15 15 16 17 18 19 21 22
9 6 5 7 8 7 7 8 8 8 7 14 17 8 7 7 5 7 8 6 9 16 19 24 28 27 25 24 25 26 22 17 15 14 13 11 10 9 9 9 8 6 4 4 4 5 7 9 11 14 15 17 18 18 18 18 18 18 18 17 17 16 15 15 14 14 13 13 12 12 12 11 11 11 10 10 10 11 11 12 13 14 16 17 18 19
9 8 6 6 8 8 8 9 8 4 8 25 21 8 14 15 6 8 12 9 9 15 18 21 24 23 22 21 21 20 19 17 15 13 11 9 8 8 9 8 7 7 7 8 10 11 13 15 17 19 20 20 20 19 19 18 17 17 17 17 16 16 15 15 15 15 14 14 13 12 11 10 9 9 8 8 9 10 11 13 15 16 17 17 18 19
9 8 6 7 8 7 5 6 5 2 12 26 19 10 21 27 15 9 13 12 13 17 17 18 21 22 20 18 15 15 16 16 15 13 11 10 10 11 10 10 10 11 12 14 15 17 17 17 18 19 19 20 20 18 18 17 14 14 15 15 15 15 14 14 14 14 13 13 12 11 10 10 9 9 9 10 12 12 13 14 15 15 16 16 17 18
3 3 2 3 4 3 2 2 3 2 10 20 15 7 17 27 22 13 11 10 13 17 16 15 17 18 17 16 15 14 14 13 13 13 12 12 13 13 13 13 15 16 16 17 18 18 18 18 17 17 17 18 19 18 18 18 15 13 14 15 14 14 14 13 13 13 13 12 12 12 12 11 11 12 12 13 13 13 13 13 13 13 13 13 14 14
3 2 2 1 3 5 4 3 3 3 8 16 15 9 13 21 21 16 11 9 11 13 13 12 12 13 14 15 14 14 14 13 13 14 14 15 14 15 16 16 18 18 17 17 17 18 18 17 15 15 15 16 17 17 17 18 17 16 15 14 14 14 14 13 13 13 13 13 13 13 14 13 13 13 12 12 12 11 10 10 9 9 9 9 10 10
2 2 1 3 3 2 2 2 2 4 7 14 16 12 11 16 18 16 13 12 11 11 12 12 12 12 13 13 13 13 13 14 14 14 15 16 15 16 18 18 18 18 18 17 17 17 16 15 14 13 13 14 16 17 16 17 17 17 15 14 13 13 13 13 13 12 13 13 13 13 13 13 12 11 11 10 10 9 8 7 6 6 6 6 7 8
0 2 2 1 1 2 3 3 2 3 5 11 17 16 12 13 16 17 16 15 15 14 14 13 13 12 12 12 13 13 13 14 14 12 14 16 16 17 19 19 19 18 18 17 17 16 15 13 12 12 13 14 15 16 15 15 15 15 14 13 13 13 12 13 13 13 13 13 13 13 13 12 12 11 10 9 8 8 7 6 6 5 6 6 7 8
2 2 2 1 1 3 4 4 5 2 3 7 14 18 15 13 16 18 17 17 17 17 16 16 15 15 14 13 13 13 13 14 14 13 13 15 16 17 19 19 19 18 18 18 18 17 15 13 13 13 14 15 16 15 15 15 15 15 15 14 14 13 13 12 12 12 13 12 12 12 11 11 10 10 9 8 8 7 6 6 5 6 7 8 9 11
7 6 6 5 4 5 6 8 11 9 5 4 10 17 20 20 19 19 20 20 19 18 17 17 17 17 16 15 15 14 14 14 14 14 14 15 16 18 19 18 18 18 18 18 18 18 17 16 14 14 15 16 17 17 16 16 16 16 15 14 13 13 12 12 12 12 12 12 11 11 11 10 10 9 8 7 6 5 5 5 6 7 8 9 11 13
Wind_Direction
85 110 174 216 211 202 205 186 159 150 124 116 125 129 172 199 267 255 248 293 217 171 251 236 237 262 266 264 267 272 273 259 259 262 263 265 265 264 263 262 261 260 261 261 259 256 254 252 251 250 248 244 241 239 238 237 236 235 235 236 236 238 240 238 234 231 227 222 216 219 222 214 210 211 212 216 227 238 242 246 245 215 206 223 214 209
87 156 231 228 204 188 183 145 119 106 87 86 120 149 262 207 253 256 238 306 328 175 268 288 273 269 267 267 267 268 264 253 253 254 258 262 264 264 263 263 264 264 265 264 261 259 256 254 252 250 248 245 242 240 239 238 237 236 235 236 236 236 236 236 235 227 220 220 217 215 220 226 223 219 224 232 238 241 243 248 248 218 201 216 209 205
58 227 246 222 150 115 93 112 118 108 87 74 111 127 283 250 271 283 302 335 12 181 273 337 317 274 269 269 267 260 248 251 256 255 259 262 262 262 262 263 265 267 267 266 263 261 259 257 254 251 249 248 245 241 240 239 238 237 235 235 236 235 233 232 229 221 217 220 220 220 224 226 219 219 229 235 236 239 248 253 242 216 204 212 212 205
142 247 257 194 148 122 80 99 111 103 99 118 139 150 257 260 271 284 301 332 9 153 277 319 305 278 272 268 262 259 253 256 262 261 262 262 260 262 263 264 266 267 268 268 267 264 261 259 256 254 252 250 247 242 240 239 237 237 236 235 235 234 232 229 225 221 223 223 219 221 223 219 219 226 228 229 235 241 250 249 225 209 205 204 206 200
218 249 259 132 151 142 115 120 130 141 226 241 186 181 223 238 218 235 291 325 345 7 15 349 311 284 274 270 265 273 274 268 265 262 262 261 260 262 263 264 265 266 268 269 270 269 266 263 260 258 255 251 248 244 242 240 238 238 237 235 234 233 231 228 226 226 226 224 220 220 221 220 222 223 225 231 236 237 242 237 213 204 199 193 197 199
250 245 121 111 126 138 133 162 180 167 199 274 229 202 214 223 220 240 347 5 1 336 346 26 315 284 299 281 263 288 326 287 271 259 260 264 264 263 263 266 267 268 270 271 272 272 271 269 265 259 255 251 250 248 245 242 240 239 238 235 232 231 231 229 229 229 226 222 222 224 224 218 215 218 227 232 229 235 240 224 207 201 195 191 196 199
243 211 108 121 138 146 150 203 222 174 143 282 248 206 210 206 190 200 106 48 308 266 288 68 173 273 302 280 263 277 285 277 277 268 264 268 269 266 266 269 271 272 273 274 274 274 272 271 267 261 256 253 252 250 245 241 239 238 237 235 233 231 230 229 230 230 227 221 218 222 224 221 221 228 234 229 227 240 234 213 207 202 195 193 196 197
185 157 84 108 119 130 160 217 224 163 134 237 248 166 171 174 186 192 155 173 239 266 302 68 133 258 286 273 274 289 279 280 281 273 270 269 268 269 269 271 274 276 277 277 277 276 275 273 269 266 263 257 253 249 244 240 239 237 235 234 232 231 230 230 230 229 228 225 218 218 221 226 232 239 238 230 232 238 222 212 210 200 196 197 194 194
162 175 181 155 132 156 188 221 191 154 143 246 210 120 136 152 160 140 124 167 343 0 293 225 132 233 267 271 307 333 276 277 274 267 269 272 274 277 277 277 280 281 281 281 281 282 282 281 277 271 266 260 254 249 246 243 240 236 234 233 231 230 229 229 230 228 225 225 224 222 223 227 231 236 235 229 233 233 218 213 210 199 198 199 194 194
90 180 195 162 152 195 204 260 184 165 169 186 132 94 81 78 81 83 104 117 52 338 257 210 157 223 268 263 292 350 244 251 261 263 266 274 281 287 287 285 288 285 285 287 291 296 297 294 285 271 263 258 254 250 246 244 241 236 233 232 231 230 229 229 231 229 225 223 224 223 221 224 227 227 224 222 230 231 217 211 209 202 200 199 198 199
341 84 180 176 184 177 131 68 92 141 139 138 112 69 54 39 41 52 55 77 65 279 266 203 176 195 270 268 228 214 221 224 242 264 275 278 285 293 292 291 287 278 279 284 292 299 301 298 286 268 258 254 251 249 245 243 241 236 233 232 232 232 230 230 229 228 226 223 223 222 219 221 223 223 223 227 233 228 214 211 209 205 203 202 203 205
338 102 223 216 186 135 102 69 31 66 120 120 88 82 75 354 9 24 356 47 122 253 282 256 181 180 233 257 235 245 263 242 227 245 263 273 280 280 267 274 289 285 280 284 292 296 298 296 288 274 261 252 247 245 243 243 241 236 233 232 232 232 231 231 229 225 224 222 222 223 220 221 226 230 235 237 234 224 215 214 211 209 207 204 206 206
286 231 266 302 188 163 123 77 40 24 64 92 96 112 104 337 356 346 302 87 223 253 285 335 174 188 236 253 255 261 266 253 231 234 242 255 268 275 275 276 284 284 281 285 292 296 297 295 289 280 269 258 250 245 242 242 241 237 233 231 231 231 231 230 227 224 222 218 218 221 221 225 231 236 237 233 226 221 220 222 221 217 210 206 206 201
269 290 285 128 222 190 165 148 147 203 188 161 147 142 140 137 162 258 264 268 262 269 287 258 239 255 264 266 244 242 251 251 247 249 253 258 266 274 278 280 283 284 284 288 293 296 296 293 288 281 274 265 256 249 244 242 240 237 233 230 230 230 230 229 225 224 222 217 217 221 225 230 232 233 232 226 220 222 225 230 234 226 213 208 204 195
221 281 212 179 192 182 183 187 164 141 159 185 158 138 159 167 173 213 218 214 246 282 304 276 230 197 207 254 237 237 259 265 258 256 258 261 264 269 275 279 284 287 290 293 296 298 297 292 286 278 271 266 258 251 245 242 240 238 235 232 230 230 229 227 225 223 222 220 219 221 227 230 229 228 229 225 223 227 231 235 237 226 212 206 200 192
206 264 239 234 162 166 181 188 131 112 141 216 112 117 200 195 155 151 199 178 179 310 308 251 228 214 211 274 272 253 266 270 261 259 259 258 259 264 270 276 284 289 293 296 298 301 299 293 286 278 271 264 257 250 245 242 240 238 236 234 232 231 230 228 226 224 222 222 222 223 227 228 225 224 226 225 226 233 239 238 232 220 209 202 197 192
181 273 286 341 85 168 180 167 135 137 173 165 143 179 220 176 123 107 242 74 80 265 274 221 245 284 313 286 273 253 258 266 263 259 256 256 259 264 268 272 279 286 293 299 302 302 298 294 289 282 275 267 260 254 248 244 242 240 238 236 233 232 230 227 226 226 225 225 225 226 226 224 221 221 223 226 232 238 239 232 223 214 207 200 196 194
167 255 299 74 174 268 12 107 83 52 127 134 188 202 175 90 92 106 206 347 45 242 271 251 244 276 300 274 289 274 250 262 265 256 255 259 258 259 263 266 275 286 298 305 309 309 302 299 292 285 279 272 265 259 253 247 244 242 239 237 235 234 233 230 228 227 228 228 227 226 224 221 220 222 226 232 237 237 230 220 214 210 204 199 197 196
164 226 303 51 170 287 23 109 99 11 80 136 182 172 120 142 199 115 162 213 172 240 276 285 270 248 207 231 270 224 224 242 257 256 254 257 246 244 252 258 275 295 313 319 319 320 315 310 301 290 281 274 267 261 254 248 244 241 239 237 235 236 236 233 229 228 228 229 228 226 225 223 224 226 231 235 234 228 221 215 211 207 203 200 199 198
146 199 271 341 283 303 38 158 195 196 46 57 105 125 105 163 182 163 160 170 175 219 262 304 307 259 217 208 200 218 223 217 239 249 243 248 243 237 234 240 297 311 324 326 321 321 321 319 310 297 284 275 269 261 254 247 243 241 239 237 235 235 235 233 231 230 229 229 227 226 226 226 227 230 235 234 228 223 220 215 211 206 203 202 201 200
100 202 236 326 341 179 181 218 199 175 158 149 164 174 187 169 123 155 198 133 140 167 193 277 288 265 239 195 190 213 222 211 218 225 226 233 232 225 213 201 333 324 324 325 321 320 324 325 318 305 290 277 265 257 251 246 244 241 238 237 235 235 235 234 233 232 232 230 226 224 226 228 230 234 236 231 224 223 220 215 211 207 204 204 204 203
181 193 183 150 228 196 212 244 208 188 182 182 191 195 194 176 143 172 233 215 130 164 181 181 265 268 248 192 198 207 220 224 212 200 219 230 219 211 201 170 351 331 326 327 323 317 317 320 319 311 297 282 269 260 253 247 243 240 237 236 235 235 237 237 236 235 234 232 228 224 225 228 232 235 236 231 226 224 220 214 210 207 206 207 207 206
165 116 145 186 216 215 234 296 212 213 200 187 222 210 192 184 173 177 207 213 155 199 187 128 257 273 260 195 212 217 240 256 221 202 219 231 225 214 193 166 343 337 333 326 320 316 314 315 312 305 298 289 278 268 259 251 245 241 238 237 235 236 237 238 239 238 237 234 229 225 225 227 230 233 235 234 231 226 220 213 208 207 208 209 209 208
126 118 176 236 310 307 314 336 16 83 121 219 240 197 166 204 202 174 185 183 160 197 195 133 244 264 274 247 252 258 267 275 243 223 221 224 228 227 206 209 310 337 329 315 309 308 309 309 305 300 295 290 282 274 266 259 251 244 239 236 236 237 238 238 239 239 238 234 229 227 226 227 229 232 233 234 233 228 219 212 208 208 209 211 211 211
168 189 175 163 301 319 324 322 320 273 202 216 230 185 181 201 182 131 119 130 182 219 195 186 244 253 269 312 306 288 278 276 256 240 229 225 226 223 218 240 313 328 315 303 298 297 299 301 300 299 296 290 284 278 271 266 260 251 244 239 237 237 238 238 239 239 239 235 230 227 226 227 229 231 232 233 233 227 218 211 209 209 211 213 213 213
170 193 176 174 213 223 222 226 222 214 188 196 219 195 196 192 176 180 202 166 229 228 192 200 243 252 292 323 305 285 279 279 261 245 237 238 235 227 230 271 321 318 306 299 295 294 294 295 296 298 298 293 287 281 274 270 266 260 253 245 240 238 238 239 238 238 239 236 232 229 226 226 228 230 231 232 231 226 218 212 210 211 213 215 215 215
152 200 190 192 207 213 224 228 191 132 143 197 215 199 198 195 185 190 199 203 219 219 209 227 235 247 262 263 264 256 230 241 255 249 244 244 242 242 252 292 311 304 298 295 291 289 289 289 291 294 296 295 290 283 279 277 271 266 260 252 244 240 238 239 238 237 237 236 234 231 228 226 227 229 230 230 229 225 218 213 212 213 216 217 217 218
110 217 202 207 214 218 231 228 181 147 173 199 205 197 198 194 184 189 210 222 212 177 245 241 221 239 250 227 222 243 229 229 248 246 242 237 236 248 268 288 292 293 293 291 287 285 284 283 287 290 292 295 292 285 283 283 278 270 264 258 251 244 240 239 238 236 236 236 235 233 230 227 227 229 230 230 228 224 219 215 213 215 217 218 219 220
148 224 209 216 222 228 240 232 182 175 192 195 196 197 196 189 186 195 214 226 214 196 245 243 187 220 245 228 212 222 207 212 223 226 235 236 236 251 268 276 280 285 286 286 287 286 282 281 284 288 289 292 292 288 286 286 283 274 265 260 255 248 243 240 239 237 236 235 235 235 232 228 228 229 230 230 228 225 221 217 216 217 219 220 220 221
177 217 207 213 223 232 243 238 197 193 208 203 199 198 193 188 193 203 215 226 220 217 243 247 219 236 246 213 204 222 218 224 232 234 243 249 249 256 266 272 275 276 277 282 285 285 283 281 283 286 287 289 292 290 288 288 287 279 269 264 260 253 247 241 239 239 237 236 236 235 233 230 229 229 229 230 229 226 223 220 218 219 221 222 222 223
202 218 201 203 225 237 244 243 221 200 214 224 214 205 199 196 201 211 218 223 221 227 243 249 254 261 253 164 191 221 219 227 240 245 248 250 252 256 262 265 268 271 274 279 282 282 282 281 284 286 285 288 291 290 290 290 287 281 272 266 263 259 252 244 241 239 238 237 236 235 234 232 230 230 230 231 230 228 226 223 221 222 223 224 224 224
212 240 221 171 224 236 241 244 229 191 220 247 239 218 209 208 211 215 217 215 210 220 236 244 252 258 243 142 182 212 205 213 230 236 242 248 250 253 256 258 263 269 274 277 278 279 280 280 283 286 284 287 289 288 291 292 287 282 276 270 266 262 256 249 244 241 239 238 236 235 234 232 231 231 231 232 232 231 229 226 225 224 224 225 226 226
171 208 224 186 216 240 246 242 177 128 192 251 240 225 218 217 218 217 221 223 215 211 222 229 237 246 238 154 192 218 190 203 230 237 243 248 250 254 258 261 267 271 274 277 279 278 279 281 283 283 284 285 286 287 290 289 286 282 277 272 267 263 259 254 248 243 239 237 236 235 234 232 231 232 232 233 234 234 232 230 227 226 225 226 227 228
172 201 218 197 216 245 246 148 108 156 223 237 238 230 223 218 211 209 221 224 217 211 221 232 243 252 248 202 210 222 208 223 240 247 250 253 255 261 267 270 272 274 276 279 281 281 283 284 284 283 282 282 281 282 284 284 283 281 275 270 267 263 260 256 251 245 240 237 235 234 234 233 232 232 232 233 234 235 235 233 230 228 227 227 228 229
191 204 210 203 222 242 204 122 177 222 227 240 255 242 221 209 200 209 225 226 216 214 226 240 250 254 248 231 230 236 236 241 250 254 256 258 262 267 271 274 277 279 282 284 286 287 286 285 284 282 278 276 274 275 277 279 280 279 274 271 267 261 258 254 250 246 241 237 235 234 233 233 232 232 232 233 234 235 235 233 231 230 228 227 228 230
195 201 206 206 208 212 170 190 224 241 263 282 283 262 199 201 195 206 231 237 222 212 218 231 241 247 248 245 247 252 256 260 265 263 259 262 269 272 274 278 282 285 287 288 287 287 287 286 285 282 276 272 269 269 272 275 277 275 273 268 264 259 256 253 249 246 242 237 235 233 233 233 232 231 232 233 234 235 235 234 233 232 231 229 228 230
196 196 202 207 200 208 219 221 238 277 306 277 255 227 192 197 188 188 225 243 227 209 213 224 235 244 247 251 255 258 265 279 279 268 262 268 274 275 277 281 285 286 286 288 287 286 288 288 287 286 282 274 270 270 273 275 275 272 268 262 259 257 254 251 248 246 242 238 236 235 234 233 232 232 232 234 235 236 237 236 235 234 233 231 229 230
201 198 194 206 206 200 220 236 242 248 253 248 243 221 161 179 179 171 206 244 237 214 212 218 230 239 244 252 256 256 262 284 279 266 263 271 274 274 278 279 280 282 285 287 289 287 287 287 287 287 284 277 273 272 272 272 271 266 262 259 257 255 254 252 250 248 244 241 239 237 235 234 233 233 234 235 237 238 238 238 238 238 236 233 231 232
205 207 199 208 214 196 212 235 228 221 243 246 242 215 158 169 159 136 188 241 247 219 208 210 223 233 236 241 244 234 169 250 267 265 259 264 266 265 267 269 272 280 282 281 283 282 282 285 284 282 280 276 270 266 262 261 259 255 254 256 255 255 256 255 254 250 246 243 240 237 235 235 236 236 236 238 239 240 241 242 242 242 239 237 236 237
201 207 204 208 217 212 216 230 229 233 251 243 233 215 170 158 140 124 211 240 239 194 190 192 203 223 232 235 230 192 170 226 252 264 250 242 248 252 260 275 282 282 279 277 280 280 280 283 278 270 267 258 247 241 234 228 222 216 217 231 243 252 256 254 253 247 242 239 236 234 234 235 236 237 237 239 240 240 241 241 240 240 238 238 239 241
196 204 203 206 219 216 215 230 240 242 244 234 196 167 154 141 138 178 223 222 166 161 180 187 196 216 229 229 211 199 222 231 237 247 241 233 244 257 271 282 280 278 279 278 279 278 275 269 249 219 185 166 157 148 144 136 124 120 117 112 111 113 118 143 181 199 211 217 218 222 226 226 228 231 231 231 231 231 232 231 231 232 233 234 237 240
195 203 203 208 219 217 217 230 238 247 240 200 142 147 151 148 185 220 204 150 152 169 182 188 198 214 225 223 215 219 229 233 233 238 243 248 258 266 269 268 264 267 274 271 260 246 217 186 166 148 134 123 116 113 113 112 110 111 110 109 111 114 117 122 130 138 146 157 167 174 181 185 191 197 202 206 211 214 218 222 225 228 230 232 235 238
180 185 200 205 207 211 226 222 218 251 227 148 124 123 176 191 215 188 157 139 168 178 181 189 201 212 217 220 224 223 224 227 229 236 244 250 254 251 241 237 239 242 234 198 176 160 146 142 135 127 120 115 111 109 109 110 112 113 115 117 119 121 124 127 130 132 136 140 145 149 154 161 168 177 186 195 203 212 219 225 232 236 237 238 240 242
178 181 197 204 198 199 218 216 211 254 172 154 150 178 208 205 201 164 169 176 176 179 182 190 201 209 211 217 222 220 221 227 232 238 244 239 226 212 208 206 197 187 172 156 148 138 132 133 130 124 120 117 114 113 112 113 115 118 120 122 122 123 125 127 127 129 131 133 137 142 148 156 164 174 187 199 212 222 227 232 236 238 238 238 239 240
197 194 192 199 203 198 211 216 205 175 171 175 181 203 199 200 205 186 182 187 182 182 187 193 201 207 210 215 217 218 224 229 230 231 225 209 198 189 184 180 170 161 154 145 138 133 132 134 131 129 127 124 122 121 120 119 119 122 125 125 125 126 127 128 129 131 133 137 142 149 158 166 175 187 199 208 216 222 226 229 231 232 233 234 234 237
249 259 240 186 193 204 237 208 167 180 192 191 198 204 193 199 204 197 191 195 191 191 191 194 203 208 208 211 214 217 222 220 217 212 199 188 186 179 172 168 158 151 148 144 140 137 138 138 136 136 134 131 130 131 130 128 129 131 132 132 133 135 137 139 141 143 147 153 160 166 174 182 188 195 202 206 211 214 217 220 223 224 228 231 234 240
307 301 332 286 203 203 218 196 167 218 212 199 202 205 191 194 199 200 199 195 190 192 189 186 193 200 202 207 210 213 214 205 197 194 187 182 179 172 166 162 155 151 149 147 143 141 142 144 142 141 141 140 140 142 142 142 143 145 147 148 148 151 154 158 160 162 165 169 173 177 181 186 189 192 195 196 198 200 202 206 210 215 222 228 233 241
243 134 93 290 255 225 240 222 219 262 229 205 208 210 193 188 191 192 194 192 185 185 185 184 186 190 193 196 196 196 197 191 189 189 183 176 174 171 167 162 159 156 153 150 148 146 148 152 151 150 151 151 150 151 153 153 153 156 159 160 159 160 161 163 165 168 170 171 173 174 175 175 175 174 175 176 177 180 183 187 194 204 216 227 236 247
52 132 157 218 269 307 298 251 227 315 283 231 222 218 200 186 187 188 191 193 190 190 191 189 185 183 185 186 184 184 184 181 180 183 181 175 172 171 168 165 163 162 159 157 155 153 156 163 163 160 161 160 157 158 158 157 157 157 157 155 152 151 153 155 156 158 161 161 162 162 162 163 163 163 165 168 171 175 182 192 202 216 233 248 256 264
152 205 192 110 143 246 255 214 179 187 285 250 236 231 216 196 192 194 193 192 192 195 195 190 183 178 178 181 180 181 183 181 176 176 178 176 173 173 172 170 168 167 166 165 163 162 166 172 171 169 168 164 160 158 156 155 152 149 147 147 145 145 148 151 153 155 157 158 159 161 163 164 167 170 174 178 183 190 201 216 232 245 258 268 273 277
197 201 184 173 200 230 235 216 203 203 215 227 228 226 218 207 202 200 200 200 200 198 195 193 189 182 179 181 182 182 187 190 188 183 180 177 176 177 176 175 174 174 173 173 172 169 168 170 172 172 168 161 155 153 152 150 147 144 144 145 144 146 150 153 154 158 160 161 165 168 171 173 176 181 185 191 200 212 230 247 260 269 275 279 281 283